Wind_Speed
19 18 19 20 20 21 9 3 3 1 2 3 2 2 3 2 3 2 2 1 2 4 5 4 4 6 2 5 6 3 4 4 3 4 2 2 2 5 4 3 6 3 3 7
22 20 19 19 16 16 9 2 3 1 3 2 2 2 1 1 4 3 2 1 1 0 5 2 4 4 5 7 5 4 4 2 3 2 1 4 2 4 5 3 2 8 3 5
25 22 21 19 15 11 7 1 3 3 4 1 5 5 4 3 1 3 2 3 2 2 3 2 3 3 4 6 3 5 4 3 6 5 3 3 4 6 6 5 3 5 10 12
25 24 24 22 15 10 5 2 4 3 2 2 2 4 7 5 5 2 5 2 6 6 5 4 4 4 3 3 6 5 4 4 4 8 8 6 7 13 9 11 10 7 15 10
27 27 29 25 16 9 4 3 2 1 2 1 5 3 7 8 4 7 5 5 9 6 5 6 6 6 6 5 4 5 3 3 2 6 10 11 13 13 10 12 10 6 5 9
17 20 22 28 20 12 3 2 5 3 2 4 4 5 6 8 9 1 0 6 5 5 4 4 4 5 4 5 8 7 4 3 2 4 4 7 8 5 4 3 2 3 4 5
18 19 23 20 22 16 11 4 4 2 5 4 6 5 3 5 5 6 2 2 4 3 6 4 5 3 1 2 3 5 3 2 2 4 3 3 5 2 2 1 4 4 2 2
18 16 20 18 21 19 18 6 5 3 4 4 2 6 5 6 5 3 3 3 1 9 3 2 2 1 1 3 4 5 4 3 2 2 2 6 4 1 1 2 4 1 0 5
21 17 17 21 19 17 18 15 10 1 1 5 2 4 4 4 3 2 2 2 3 3 2 2 4 4 3 3 1 2 4 3 4 1 1 4 4 4 4 4 4 2 3 4
21 21 14 22 20 18 18 10 16 5 2 2 4 2 4 6 3 3 4 4 2 0 3 3 4 3 2 4 6 5 3 3 9 8 4 6 3 5 3 1 3 2 2 3
22 18 22 19 19 18 19 8 15 13 3 0 5 7 1 2 4 4 5 4 2 2 3 3 2 2 4 2 3 5 6 5 4 3 3 7 6 3 5 4 2 2 2 3
24 21 28 23 21 20 23 7 13 15 6 3 6 4 4 3 3 4 3 2 3 5 3 1 3 1 1 4 3 0 2 5 4 7 4 3 5 4 3 4 5 3 2 4
24 21 31 26 26 26 24 22 18 11 3 2 2 2 3 1 1 1 4 2 4 3 2 3 2 2 3 3 4 2 2 3 2 3 1 4 5 2 3 2 2 2 1 2
27 23 30 28 28 26 30 25 21 12 6 3 2 2 1 3 2 2 2 10 7 8 3 2 2 2 2 2 2 3 4 5 5 3 3 4 2 2 2 1 1 2 5 3
25 26 28 30 27 24 23 25 24 16 2 3 3 3 3 4 3 8 11 18 5 3 2 2 2 2 2 1 1 3 5 6 4 5 4 5 4 3 2 3 1 2 2 5
23 32 32 33 31 29 19 2 16 19 10 4 3 2 2 3 8 12 11 7 3 2 2 2 2 1 3 2 3 4 4 3 5 5 4 5 4 4 2 2 3 5 7 7
28 35 31 29 26 27 4 2 18 29 12 3 4 3 1 1 3 3 4 5 1 2 2 1 2 1 3 2 3 3 6 5 4 4 5 2 4 4 3 5 6 6 8 9
36 36 31 24 22 16 8 14 22 23 10 5 3 3 3 4 2 2 1 2 1 2 2 1 2 1 1 3 6 4 5 6 5 7 6 5 4 4 6 5 3 3 5 9
40 37 32 18 5 4 7 11 13 11 4 4 3 6 5 5 1 2 1 1 1 1 2 2 2 2 4 6 6 6 6 7 6 5 5 5 5 6 3 0 2 2 4 9
43 26 6 3 5 25 17 3 1 2 2 2 2 3 3 3 2 1 2 1 2 2 2 2 2 4 5 6 7 8 8 8 7 4 3 2 4 4 2 3 4 7 11 13
10 4 3 13 16 3 2 2 2 2 1 1 2 3 5 1 3 3 1 2 1 2 2 3 2 3 4 6 6 5 12 15 12 9 4 6 5 5 4 6 9 10 12 12
13 20 19 9 2 1 3 3 1 3 4 2 4 4 3 2 2 3 1 3 2 3 2 3 3 4 4 7 6 6 13 12 10 11 10 9 9 9 9 10 12 12 11 13
16 6 3 4 1 2 6 8 4 3 5 5 4 4 3 2 2 3 2 3 3 2 2 3 4 2 4 5 5 5 11 12 10 10 10 8 9 7 9 12 12 12 13 13
3 5 5 6 4 4 3 2 3 3 5 9 6 5 3 2 2 3 4 1 3 1 2 5 3 6 7 6 4 5 6 12 12 12 11 10 9 10 10 12 11 11 13 12
3 4 4 3 3 3 2 2 3 3 8 6 5 3 2 2 4 2 4 3 3 5 5 3 3 6 8 7 5 6 5 12 13 11 11 11 10 10 12 11 9 9 12 12
3 4 3 2 2 2 2 3 6 3 6 2 3 3 3 2 5 4 6 7 6 4 3 3 4 6 6 5 7 14 14 13 11 11 10 9 10 11 11 11 10 9 8 10
3 2 2 1 3 3 3 3 3 6 2 3 2 4 2 4 3 2 4 5 3 3 2 2 5 8 7 10 13 13 12 12 10 9 10 11 8 9 10 12 8 6 7 8
Wind_Direction
294 304 315 322 335 341 346 346 319 319 144 47 36 139 138 116 167 265 209 196 123 177 168 204 213 186 115 139 143 183 191 164 251 255 6 84 146 176 153 137 275 227 175 279
286 291 301 311 327 339 335 318 243 212 283 226 159 202 55 56 155 187 205 188 308 269 181 219 155 138 149 141 163 172 169 232 325 229 301 352 142 216 212 224 173 226 207 262
278 284 288 295 305 320 323 340 313 319 54 332 138 159 200 206 252 148 133 147 109 114 215 240 176 143 183 163 171 149 140 218 202 211 211 184 206 213 212 185 206 251 238 284
282 281 284 282 286 298 283 173 239 194 250 259 171 158 158 155 213 239 174 174 203 173 194 183 212 147 137 174 209 156 143 241 229 264 265 255 236 260 244 236 237 216 277 260
274 271 272 270 266 245 276 274 190 287 169 171 133 174 217 194 161 156 229 212 186 192 191 201 178 152 169 178 198 154 184 269 289 275 263 267 267 264 248 232 231 241 260 284
291 283 287 271 250 231 165 334 358 332 161 164 143 218 207 194 147 244 329 182 133 180 188 123 120 94 106 137 155 182 185 205 9 265 312 333 303 233 194 211 148 181 252 246
291 295 288 276 254 226 175 159 113 95 283 236 200 180 141 159 181 151 172 116 145 160 118 92 54 42 17 156 199 165 154 96 165 273 346 276 248 116 118 148 261 279 301 8
303 298 289 276 251 225 205 195 148 154 247 229 276 146 113 88 77 95 112 48 129 147 94 105 130 31 12 241 213 210 162 123 274 263 209 287 330 255 194 132 273 96 295 328
295 298 282 258 244 217 208 184 192 246 131 238 19 151 163 139 128 111 98 47 102 106 166 175 193 216 178 180 120 69 167 140 153 349 211 262 229 164 95 104 280 143 16 331
286 296 265 239 237 210 192 152 177 156 121 326 337 211 181 135 131 135 137 165 171 202 158 197 202 225 137 183 182 172 162 225 216 229 249 272 187 153 109 126 257 327 332 295
284 279 252 241 227 197 183 156 177 162 149 315 341 357 59 125 140 162 153 100 236 139 175 172 214 153 219 108 196 178 166 164 194 180 236 267 159 101 173 212 190 193 247 290
282 279 233 222 213 194 168 129 153 158 116 120 58 56 36 344 320 130 169 185 155 168 127 184 112 161 116 164 248 219 256 189 186 175 217 181 187 205 207 162 168 231 196 280
280 264 234 202 178 178 177 144 146 138 98 66 107 235 2 92 340 167 130 258 156 118 166 142 157 192 128 175 239 164 225 149 175 48 163 175 183 127 149 134 159 253 224 219
273 238 232 180 169 170 178 152 159 149 134 123 129 179 29 15 321 211 195 132 101 110 81 99 139 175 149 218 196 178 196 129 177 256 252 71 101 124 149 322 40 356 335 311
275 222 187 170 163 160 171 153 156 165 160 121 114 103 31 38 115 119 129 124 99 93 72 94 193 121 103 1 62 251 186 186 155 222 185 159 220 175 294 159 200 287 266 308
259 189 172 165 159 169 141 143 174 152 124 106 127 65 30 80 105 93 90 83 70 90 124 168 79 85 108 151 224 248 208 162 154 196 175 184 230 261 105 176 258 286 288 299
214 171 163 155 152 155 82 282 157 148 144 101 108 130 133 98 77 36 48 44 63 116 111 94 131 162 113 167 228 233 181 162 157 136 109 349 173 204 281 293 292 303 313 315
163 150 146 141 138 112 69 103 137 139 117 101 133 107 133 182 159 114 42 123 65 359 129 65 116 73 108 251 234 192 162 156 167 176 193 189 196 243 259 273 294 338 311 312
137 138 130 105 58 82 129 114 116 124 110 142 144 150 163 149 114 121 93 91 97 261 123 140 141 214 227 221 195 184 179 177 198 170 180 207 220 248 242 169 329 287 291 301
134 125 87 90 92 119 113 78 69 36 12 61 106 114 133 147 134 85 92 18 154 148 221 84 177 257 233 212 206 191 178 168 137 108 270 243 242 213 221 228 270 275 287 302
141 112 87 120 132 113 56 97 154 150 177 114 129 122 132 196 133 140 223 163 178 124 213 149 249 264 236 164 159 162 165 172 187 197 183 189 185 196 224 274 281 286 292 295
140 113 111 123 121 83 135 168 78 210 203 158 123 126 111 133 110 106 246 127 60 197 126 87 256 247 189 158 169 177 175 175 190 205 210 214 222 238 249 268 276 282 291 302
110 83 98 145 158 177 192 186 233 170 171 167 163 122 114 112 89 81 120 109 173 71 77 230 226 226 165 170 156 159 183 189 196 205 218 226 238 246 252 267 281 289 293 301
98 140 145 199 176 231 185 200 118 100 131 138 116 99 120 147 97 144 110 76 83 82 239 235 239 201 186 173 163 137 188 196 204 213 216 225 240 256 261 268 281 289 293 309
104 120 186 197 112 81 84 78 93 107 142 130 109 94 123 121 104 88 110 69 220 214 228 224 221 183 161 170 169 176 181 198 208 211 215 234 248 256 271 277 280 287 299 302
68 68 80 103 84 101 78 97 125 130 153 84 85 125 104 128 127 126 198 145 218 229 212 214 135 156 160 169 178 197 203 202 208 214 229 243 245 254 271 287 293 301 300 303
65 48 25 84 61 116 123 141 151 149 157 157 143 123 149 106 91 202 191 204 215 199 204 165 159 164 178 178 186 191 194 201 208 218 228 242 255 258 265 280 311 311 316 318
Height
860 860 857 855 852 850 844 844 849 841 835 843 854 853 850 852 860 861 859 856 854 856 863 865 866 869 876 880 883 889 889 901 910 892 890 887 890 900 902 917 926 912 933 900
856 856 855 854 852 850 849 847 843 838 840 840 853 857 859 856 857 859 864 865 862 863 865 864 866 875 878 879 883 886 893 906 917 894 895 901 903 892 891 895 902 901 932 912
849 851 851 851 851 849 849 848 846 838 840 847 848 853 855 861 860 858 858 863 864 866 869 869 872 879 882 882 884 882 887 898 900 901 892 889 892 885 890 899 915 906 895 890
843 845 846 847 846 848 849 846 842 841 838 840 844 848 851 857 862 859 858 862 863 864 869 871 874 874 884 884 883 888 893 901 895 888 890 884 881 875 882 885 891 900 877 887
834 835 836 836 839 842 848 842 840 844 845 842 842 841 851 849 854 860 862 860 855 861 863 861 866 867 875 880 886 889 892 895 886 887 878 875 877 869 875 874 869 880 880 881
828 828 827 830 831 838 840 841 842 846 838 842 845 840 835 840 849 854 854 856 860 860 861 865 869 870 872 873 884 891 890 896 898 894 875 877 891 880 872 872 865 872 887 885
822 823 823 819 824 831 833 839 840 848 844 840 832 832 834 840 845 850 855 856 858 866 864 866 870 871 870 872 874 880 887 897 895 898 885 907 879 873 870 870 870 872 874 880
814 815 818 814 817 820 825 836 839 842 845 838 835 834 839 844 850 855 856 861 861 863 866 870 870 878 874 873 877 880 883 901 899 902 903 876 886 875 875 875 874 880 881 882
813 810 811 809 808 813 822 823 834 842 844 832 832 835 837 845 853 858 862 862 862 863 864 862 865 860 860 878 881 880 883 889 903 897 907 892 884 879 878 881 892 880 882 882
807 806 802 802 804 803 812 819 825 834 840 841 840 835 835 836 849 857 860 863 864 863 864 860 860 862 862 867 876 885 890 897 892 894 899 886 876 877 877 881 879 879 882 882
802 801 801 793 799 796 805 814 815 822 833 842 843 840 837 837 841 850 855 861 863 866 867 865 863 879 875 883 872 881 886 893 892 895 890 890 876 880 886 882 877 877 881 879
795 795 794 789 792 788 791 810 815 817 825 834 838 842 841 840 841 843 848 848 848 851 858 868 871 872 888 880 882 866 880 875 886 885 873 868 871 871 873 876 879 878 879 876
789 788 786 785 786 786 789 796 807 815 829 835 836 843 840 837 841 841 844 846 843 845 848 857 865 870 870 879 877 877 869 875 883 878 868 869 870 872 871 872 874 873 873 874
782 781 781 781 781 785 785 785 798 810 820 827 837 838 838 838 839 839 838 837 840 842 848 857 866 862 862 868 869 872 873 874 878 874 867 871 871 873 873 872 872 871 871 871
775 775 776 779 781 784 787 783 792 805 812 824 836 839 839 840 841 839 839 839 841 847 855 859 864 857 864 871 873 878 866 867 873 873 864 874 873 870 871 872 871 870 869 868
769 769 773 775 777 781 789 793 791 798 809 820 834 840 840 842 843 843 842 844 844 847 854 857 858 859 868 878 872 855 857 857 857 865 865 867 867 867 869 870 869 867 866 865
762 763 772 776 777 781 785 785 781 786 805 819 836 840 843 842 844 846 845 846 849 848 852 855 858 861 870 879 870 847 850 851 854 858 863 867 864 867 866 866 865 865 864 863
758 763 772 776 782 784 788 791 787 787 800 813 829 838 841 843 845 848 846 848 850 852 851 855 860 865 869 870 849 847 847 851 854 856 858 860 862 863 863 863 862 862 862 860
757 764 771 780 785 788 793 796 794 792 798 811 824 828 833 840 843 846 847 847 858 853 852 855 859 860 859 844 846 845 847 850 853 853 856 858 859 859 860 860 860 861 860 858
758 766 772 784 790 791 796 801 798 799 800 806 815 823 831 834 840 848 853 854 852 865 858 858 861 852 835 834 835 836 841 845 849 857 859 858 858 857 858 858 858 858 857 855
757 766 779 786 791 795 794 797 798 802 808 810 814 820 825 832 834 845 852 852 858 863 857 863 861 851 831 828 833 835 838 841 844 847 849 851 852 855 855 854 854 854 853 852
754 761 775 786 791 794 794 794 803 804 795 812 810 816 821 832 832 844 854 855 859 862 857 871 860 831 823 828 833 836 837 839 842 845 847 849 850 850 851 851 851 851 850 849
753 764 777 780 791 790 785 792 798 793 799 804 807 815 822 831 833 845 848 856 858 854 870 854 835 821 822 827 830 834 836 838 841 843 845 846 847 847 848 848 848 847 846 846
750 760 777 770 778 778 771 770 772 785 789 795 800 809 817 827 834 840 841 856 860 870 867 839 825 818 821 825 828 831 834 835 838 840 842 843 844 844 845 845 845 844 842 842
751 756 765 775 774 779 782 781 782 786 789 794 801 811 816 826 836 836 849 861 860 839 828 818 814 814 819 824 826 828 830 833 835 837 838 839 841 842 842 842 841 840 839 838
756 764 776 775 773 777 779 782 785 788 791 792 797 807 817 827 825 832 832 838 833 813 812 808 811 814 817 821 822 825 827 830 832 834 835 837 838 839 839 838 837 836 835 834
764 775 770 771 770 772 779 783 786 789 790 791 795 798 807 821 825 825 820 819 804 803 805 805 806 810 815 817 820 823 825 828 830 831 833 834 835 836 836 834 833 833 832 831